This is the latest recevied weather packets stored in our database for station/object IT9FBN-3. If no packets are shown the sender has not sent any weather packets the latest 10 day(s).
| Time | Temp. | Humidity | Pressure | Rain* | Wind** | Luminosity | Snow |
|---|---|---|---|---|---|---|---|
| 1777546202 | 23.89° C | 45% | 1016.5 hPa | 0 mm | - | - | - |
| 1777545903 | 23.89° C | 45% | 1016.7 hPa | 0 mm | - | - | - |
| 1777545602 | 23.89° C | 44% | 1016.6 hPa | 0 mm | - | - | - |
| 1777545303 | 24.44° C | 44% | 1016.6 hPa | 0 mm | - | - | - |
| 1777545002 | 23.89° C | 43% | 1016.5 hPa | 0 mm | - | - | - |
| 1777544703 | 23.89° C | 44% | 1016.6 hPa | 0 mm | - | - | - |
| 1777544403 | 23.33° C | 44% | 1016.5 hPa | 0 mm | - | - | - |
| 1777544103 | 23.89° C | 44% | 1016.6 hPa | 0 mm | - | - | - |
| 1777543803 | 23.89° C | 43% | 1016.7 hPa | 0 mm | - | - | - |
| 1777543503 | 23.33° C | 42% | 1016.7 hPa | 0 mm | - | - | - |
| 1777543203 | 23.33° C | 44% | 1016.6 hPa | 0 mm | - | - | - |
| 1777542903 | 23.33° C | 43% | 1016.8 hPa | 0 mm | - | - | - |
| 1777542602 | 23.33° C | 39% | 1016.8 hPa | 0 mm | - | - | - |
| 1777542303 | 23.33° C | 41% | 1016.7 hPa | 0 mm | - | - | - |
| 1777542003 | 22.78° C | 41% | 1016.8 hPa | 0 mm | - | - | - |
| 1777541703 | 22.78° C | 39% | 1016.8 hPa | 0 mm | - | - | - |
| 1777541403 | 22.78° C | 40% | 1016.8 hPa | 0 mm | - | - | - |
| 1777541103 | 22.78° C | 41% | 1016.9 hPa | 0 mm | - | - | - |
| 1777540803 | 22.78° C | 41% | 1016.9 hPa | 0 mm | - | - | - |
| 1777540503 | 22.22° C | 41% | 1016.9 hPa | 0 mm | - | - | - |
| 1777540203 | 22.22° C | 41% | 1017.1 hPa | 0 mm | - | - | - |
| 1777539902 | 22.78° C | 41% | 1017.1 hPa | 0 mm | - | - | - |
| 1777539603 | 22.22° C | 43% | 1017.1 hPa | 0 mm | - | - | - |
| 1777539303 | 21.67° C | 44% | 1017.1 hPa | 0 mm | - | - | - |
| 1777539003 | 21.11° C | 44% | 1016.9 hPa | 0 mm | - | - | - |
* Rain latest hour (hover to see other rain measurements)
** Current wind speed in m/s (hover to see current wind gust speed)